GW0720 Weather Reports


Display with metric or nautical units.
time (UTC)temp
F
wind
direction
speed
MPH
gust
MPH
rain 1hr
in
rain 24hr
in
rain mn
in
humidity
%
barometer
mb
20260902041601 76 0 0.0 0.0 0.00 0.00 0.00 93 1017.2
20260902040103 75 0 0.0 0.0 0.00 0.00 0.00 93 1017.1
20260902034554 75 0 0.0 0.0 0.00 0.00 0.00 92 1017.0
20260902033054 75 0 0.0 0.0 0.00 0.00 0.00 91 1016.8
20260902031606 76 0 0.0 0.0 0.00 0.00 0.00 91 1016.8
20260902030057 76 0 0.0 0.0 0.00 0.00 0.00 91 1016.7
20260902024600 76 0 0.0 0.0 0.00 0.00 0.00 90 1016.6
20260902023056 77 0 0.0 0.0 0.00 0.00 0.00 90 1016.7
20260902021632 77 0 0.0 0.0 0.00 0.00 0.00 89 1016.8
20260902020059 77 0 0.0 0.0 0.00 0.00 0.00 89 1017.0
20260902014558 78 0 0.0 0.0 0.00 0.00 0.00 88 1016.5
20260902013058 78 0 0.0 0.0 0.00 0.00 0.00 87 1016.3
20260902011557 78 0 0.0 0.0 0.00 0.00 0.00 86 1016.1
20260902010108 79 0 0.0 0.0 0.00 0.00 0.00 86 1016.1
20260902004604 79 0 0.0 0.0 0.00 0.00 0.00 85 1016.2
20260902003102 80 0 0.0 0.0 0.00 0.00 0.00 83 1016.1
20260902001556 81 0 0.0 0.0 0.00 0.00 0.00 82 1016.0
20260902000106 82 0 0.0 0.0 0.00 0.00 0.00 80 1015.8
20260901234601 83 0 0.0 0.0 0.00 0.00 0.00 80 1016.0
20260901233111 84 0 0.0 0.0 0.00 0.00 0.00 77 1016.0
20260901231602 85 0 0.0 0.0 0.00 0.00 0.00 74 1016.1
20260901230104 86 0 0.0 0.0 0.00 0.00 0.00 70 1016.4
20260901224605 87 0 0.0 0.0 0.00 0.00 0.00 69 1016.6
20260901223111 88 0 0.0 1.0 0.00 0.00 0.00 67 1016.6
20260901221600 89 0 0.0 1.0 0.00 0.00 0.00 65 1016.7
20260901220107 90 0 0.0 2.0 0.00 0.00 0.00 63 1016.8
20260901214600 91 262 0.0 2.0 0.00 0.00 0.00 61 1016.9
20260901213057 91 0 0.0 4.0 0.00 0.00 0.00 60 1016.8
20260901211600 91 0 0.0 3.0 0.00 0.00 0.00 59 1016.8
20260901210111 92 0 0.0 2.0 0.00 0.00 0.00 61 1016.9
20260901204559 93 38 0.0 2.0 0.00 0.00 0.00 53 1016.9
20260901203115 93 0 0.0 4.0 0.00 0.00 0.00 56 1017.0
20260901201601 94 0 0.0 3.0 0.00 0.00 0.00 55 1017.1
20260901200059 93 0 0.0 3.0 0.00 0.00 0.00 51 1017.2
20260901194603 94 0 0.0 4.0 0.00 0.00 0.00 53 1017.3
20260901193106 94 0 0.0 4.0 0.00 0.00 0.00 51 1017.5
20260901191606 96 0 0.0 3.0 0.00 0.00 0.00 49 1017.6
20260901190115 95 0 0.0 4.0 0.00 0.00 0.00 53 1017.8
20260901184601 94 0 1.0 4.0 0.00 0.00 0.00 50 1018.0
20260901183059 94 242 0.0 4.0 0.00 0.00 0.00 51 1018.2
20260901181557 95 0 0.0 4.0 0.00 0.00 0.00 54 1018.2
20260901180108 94 229 0.0 2.0 0.00 0.00 0.00 53 1018.0
20260901174623 95 0 0.0 3.0 0.00 0.00 0.00 53 1018.0
20260901173318 94 65 0.0 6.0 0.00 0.00 0.00 54 1017.8
20260901171606 93 0 0.0 3.0 0.00 0.00 0.00 55 1018.0
20260901170100 92 0 0.0 4.0 0.00 0.00 0.00 63 1018.1
20260901164605 92 350 1.0 6.0 0.00 0.00 0.00 58 1018.4
20260901163101 92 229 0.0 3.0 0.00 0.00 0.00 63 1018.4
20260901161614 92 0 0.0 3.0 0.00 0.00 0.00 61 1018.7
20260901160101 91 0 0.0 2.0 0.00 0.00 0.00 63 1018.7
20260901154605 91 0 0.0 3.0 0.00 0.00 0.00 66 1018.8
20260901153247 91 234 0.0 4.0 0.00 0.00 0.00 65 1019.0
20260901151558 91 0 0.0 2.0 0.00 0.00 0.00 68 1018.9
20260901150116 89 0 0.0 4.0 0.00 0.00 0.00 71 1018.9
20260901144559 88 0 0.0 2.0 0.00 0.00 0.00 72 1019.0
20260901143136 87 0 0.0 3.0 0.00 0.00 0.00 74 1019.2
20260901141610 85 0 0.0 5.0 0.00 0.00 0.00 77 1019.0
20260901140058 82 0 0.0 3.0 0.00 0.00 0.00 81 1018.9
20260901134650 80 0 0.0 2.0 0.00 0.00 0.00 85 1019.0
20260901134557 80 0 0.0 2.0 0.00 0.00 0.00 85 1019.0
20260901133109 79 0 0.0 3.0 0.00 0.00 0.00 87 1019.0
20260901131603 77 0 0.0 1.0 0.00 0.00 0.00 93 1019.1
20260901130057 76 0 0.0 3.0 0.00 0.00 0.00 95 1019.0
20260901124555 75 0 0.0 0.0 0.00 0.00 0.00 96 1018.9
20260901121615 74 0 0.0 0.0 0.00 0.00 0.00 97 1018.9
20260901120120 73 0 0.0 0.0 0.00 0.00 0.00 97 1018.9
20260901114555 73 0 0.0 0.0 0.00 0.00 0.00 96 1018.8
20260901113103 72 0 0.0 0.0 0.00 0.00 0.00 96 1018.5
20260901111600 72 0 0.0 0.0 0.00 0.00 0.00 96 1018.5
20260901104605 72 0 0.0 0.0 0.00 0.00 0.00 96 1018.3
20260901103106 72 0 0.0 0.0 0.00 0.00 0.00 96 1018.3
20260901101607 72 0 0.0 0.0 0.00 0.00 0.00 96 1018.3
20260901100107 72 0 0.0 0.0 0.00 0.00 0.00 95 1018.4
20260901094558 72 0 0.0 0.0 0.00 0.00 0.00 95 1018.3
20260901093059 72 0 0.0 0.0 0.00 0.00 0.00 95 1018.4
20260901091600 72 0 0.0 0.0 0.00 0.00 0.00 95 1018.3
20260901090104 72 0 0.0 0.0 0.00 0.00 0.00 95 1018.2
20260901084602 72 0 0.0 0.0 0.00 0.00 0.00 95 1018.2
20260901083104 72 0 0.0 0.0 0.00 0.00 0.00 95 1018.2
20260901081556 72 0 0.0 0.0 0.00 0.00 0.00 95 1018.2
20260901080059 72 0 0.0 0.0 0.00 0.00 0.00 94 1018.3
20260901074553 72 0 0.0 0.0 0.00 0.00 0.00 94 1018.3
20260901073100 72 0 0.0 0.0 0.00 0.00 0.00 94 1018.5
20260901071628 73 0 0.0 0.0 0.00 0.00 0.00 94 1018.6
20260901070056 73 0 0.0 0.0 0.00 0.00 0.00 94 1018.6
20260901064604 73 0 0.0 0.0 0.00 0.00 0.00 94 1018.7
20260901063058 73 0 0.0 0.0 0.00 0.00 0.00 94 1019.0
20260901061602 73 0 0.0 0.0 0.00 0.00 0.00 94 1018.9
20260901060109 73 0 0.0 0.0 0.00 0.00 0.00 93 1019.1
20260901054555 73 0 0.0 0.0 0.00 0.00 0.00 93 1019.1
20260901053111 74 0 0.0 0.0 0.00 0.00 0.00 93 1019.3
20260901051600 74 0 0.0 0.0 0.00 0.00 0.00 93 1019.4
20260901050101 74 0 0.0 0.0 0.00 0.00 0.00 92 1019.5
20260901044557 74 0 0.0 0.0 0.00 0.00 0.00 92 1019.6
20260901043123 74 0 0.0 0.0 0.00 0.00 0.00 91 1019.7